OPS 4682 DEB, 19355

Orbit data source: Space-Track

OPS 4682 DEB, 19355 is space debris in LEO originally from a launch on Sat, 03 Apr 1965 UTC launched from the Air Force Western Test Range (AFWTR). Debris objects in space refer to the collection of defunct objects orbiting the Earth. Examples of debris include non-operational satellites, rocket bodies, and fragments generated from explosions, collisions, or faulty payload assembly.

Loading next visibility...
Identifier
19355, 1965-027AT
Orbit
LEO
Country
Flag of USUS
Related business
Manufacturer
Unknown
Mission
Spacecraft
Bus & Motor
Unknown
Mass
Unknown
Launch date (UTC)
1965-04-03 (61 years ago)
Launch vehicle
Unknown
Launch site
Air Force Western Test Range (AFWTR)
Object type
Payload
Rocket body
Debris
Shape & HBR
Unknown shape, 0.1 m
Radar Cross Section
Medium (>0.1 m² and <1 m²)

Expand to show TLE details & history
Last TLE update: 1 day ago

TLE from 1 day ago
0 OPS 4682 DEB
1 19355U 65027AT  26207.20637836  .00000941  00000-0  31714-2 0  9997
2 19355  90.2339 358.3733 0041161 306.2972 227.4687 12.98259742807768
Epoch: 2026-07-26T04:57Z
TLE epoch observation values (Epoch: 2026-07-26T04:57:11.090Z)
Latitude
6.50632°
Longitude
160.196°
Altitude
1,292.538 km
Speed
7.2 km/s
True Right ascension
11h 53m 35s
True Declination
6° 28' 13"
Sunlit
Object was in daylight at epoch
Visualization orbit readout
Latitude
Unknown
Longitude
Unknown
Altitude
Unknown
Speed
Unknown
Apparent Right ascension
Unknown
Apparent Declination
Unknown
Sunlit
N/A
Visualization observer readout
Local Sidereal Time
23:13:11
Azimuth
Unknown
Elevation
Unknown
Doppler factor
Unknown
Orbital elements
Apogee altitude
1,297.506 km
Perigee altitude
1,234.578 km
Semi-major axis
7,644.179 km
Eccentricity
0.00412
Inclination
90.2339°
RAAN
358.3733°
Arg. of periapsis
306.2972°
True anomaly
227.12233°
Mean anomaly
227.4687°
Eccentric anomaly
227.29539°
Mean motion
3.24748 °/min
Orbital period
110.86 mins
BSTAR
0.0031714
Loading maneuver chart data...
Computing Atmospheric mass density...
Loading historical data...
Loading historical data...
Loading historical data...
Loading historical data...
Loading historical data...
Loading historical data...
Loading historical data...

Documentation

Showing up to 5 results
|